This is the latest recevied weather packets stored in our database for station/object K3JSE-4. If no packets are shown the sender has not sent any weather packets the latest 10 day(s).
| Time | Temp. | Humidity | Pressure | Rain* | Wind** | Luminosity | Snow |
|---|---|---|---|---|---|---|---|
| 1777746644 | 13.33° C | 42% | 1013.1 hPa | 0 mm | - | - | - |
| 1777746344 | 13.33° C | 40% | 1013.2 hPa | 0 mm | - | - | - |
| 1777746044 | 13.33° C | 41% | 1013.2 hPa | 0 mm | - | - | - |
| 1777745744 | 12.78° C | 43% | 1013.2 hPa | 0 mm | - | - | - |
| 1777745443 | 13.33° C | 40% | 1013.2 hPa | 0 mm | - | - | - |
| 1777745144 | 13.33° C | 44% | 1013.2 hPa | 0 mm | - | - | - |
| 1777744844 | 13.89° C | 41% | 1013.1 hPa | 0 mm | - | - | - |
| 1777744544 | 13.89° C | 43% | 1013.3 hPa | 0 mm | - | - | - |
| 1777744243 | 13.89° C | 43% | 1013.2 hPa | 0 mm | - | - | - |
| 1777743943 | 15° C | 42% | 1013.2 hPa | 0 mm | - | - | - |
| 1777743643 | 14.44° C | 41% | 1013.2 hPa | 0 mm | - | - | - |
| 1777743343 | 14.44° C | 45% | 1013.3 hPa | 0 mm | - | - | - |
| 1777743043 | 13.89° C | 42% | 1013.2 hPa | 0 mm | - | - | - |
| 1777742743 | 13.89° C | 48% | 1013.3 hPa | 0 mm | - | - | - |
| 1777742443 | 13.33° C | 45% | 1013.5 hPa | 0 mm | - | - | - |
| 1777742143 | 13.33° C | 48% | 1013.4 hPa | 0 mm | - | - | - |
| 1777741843 | 12.78° C | 44% | 1013.4 hPa | 0 mm | - | - | - |
| 1777741543 | 12.78° C | 45% | 1013.2 hPa | 0 mm | - | - | - |
| 1777741243 | 12.22° C | 44% | 1013.3 hPa | 0 mm | - | - | - |
| 1777740943 | 12.22° C | 47% | 1013.4 hPa | 0 mm | - | - | - |
| 1777740643 | 12.22° C | 48% | 1013.4 hPa | 0 mm | - | - | - |
| 1777740343 | 12.22° C | 50% | 1013.5 hPa | 0 mm | - | - | - |
| 1777740043 | 12.22° C | 46% | 1013.5 hPa | 0 mm | - | - | - |
| 1777739743 | 12.78° C | 53% | 1013.6 hPa | 0 mm | - | - | - |
| 1777739443 | 12.78° C | 46% | 1013.7 hPa | 0 mm | - | - | - |
* Rain latest hour (hover to see other rain measurements)
** Current wind speed in m/s (hover to see current wind gust speed)